Location: *
(49.6619°S, 177.4603°W)
Time: 05:22:50
(UTC+00:00)

Cosmos 1242 Rocket - Pass Details

Date: 31 January 2023
Orbit: 422 x 448 km, 81.2° (Epoch: 01 April)

Event Time Altitude Azimuth Distance (km) Brightness Sun altitude
Rises 11:29:44 0° 196° (SSW) 2,547 7.7 -22.5°
Reaches altitude 10° 11:31:52 10° 200° (SSW) 1,663 6.3 -22.6°
Enters shadow 11:35:03 51° 251° (WSW) 611 3.1 -22.7°
